Location: Anankanda
(14.7841°N, 3.0348°W)
Time: 06:07:49
(UTC+00:00)

Palapa 6 Rocket - Pass Details

Date: 17 January 2021
Orbit: 485 x 1216 km, 22.7° (Epoch: 07 March)

Event Time Altitude Azimuth Distance (km) Brightness Sun altitude
Rises 19:45:54 0° 288° (WNW) 3,147 7.5 -24.3°
Reaches altitude 10° 19:48:35 10° 288° (WNW) 2,102 6.5 -25.0°
Enters shadow 19:52:46 65° 283° (WNW) 656 3.2 -25.9°
